Location: *
(2.7500°S, 66.6833°W)
Time: 00:43:17
(UTC+00:00)

Cosmos 1943 - Pass Details

Date: 24 May 2024
Orbit: 833 x 848 km, 71.0° (Epoch: 13 June)

Event Time Altitude Azimuth Distance (km) Brightness Sun altitude
Rises 23:41:55 0° 187° (S) 3,408 6.2 -19.2°
Reaches altitude 10° 23:44:26 10° 182° (S) 2,471 5.4 -19.8°
Maximum altitude 23:49:58 54° 105° (ESE) 1,022 3.2 -21.1°
Drops below altitude 10° 23:55:28 10° 29° (NNE) 2,459 5.5 -22.4°
Sets 23:57:57 0° 25° (NNE) 3,390 6.3 -22.9°
